Time,TemperatureF,DewpointF,PressureIn,WindDirection,WindDirectionDegrees,WindSpeedMPH,WindSpeedGustMPH,Humidity,HourlyPrecipIn,Conditions,Clouds,dailyrainin,SoftwareType,DateUTC
2013-11-20 00:02:00,35.0,29.0,-100.00,SSE,160,9.0,19.0,79,-99.99,,,-99.99,,2013-11-20 06:02:00,
2013-11-20 00:42:00,36.0,30.0,-100.00,South,185,11.0,21.0,80,-99.99,,,-99.99,,2013-11-20 06:42:00,
2013-11-20 00:52:00,36.0,30.0,-100.00,South,185,11.0,21.0,80,-99.99,,,-99.99,,2013-11-20 06:52:00,
2013-11-20 01:01:00,36.0,30.0,-100.00,South,185,11.0,21.0,80,-99.99,,,-99.99,,2013-11-20 07:01:00,
2013-11-20 01:22:00,36.0,30.0,-100.00,South,170,9.0,15.0,79,-99.99,,,-99.99,,2013-11-20 07:22:00,
2013-11-20 01:32:00,36.0,30.0,-100.00,South,170,9.0,15.0,79,-99.99,,,-99.99,,2013-11-20 07:32:00,
2013-11-20 01:42:00,36.0,30.0,-100.00,South,170,9.0,15.0,79,-99.99,,,-99.99,,2013-11-20 07:42:00,
2013-11-20 01:52:00,36.0,30.0,-100.00,South,170,9.0,15.0,79,-99.99,,,-99.99,,2013-11-20 07:52:00,
2013-11-20 02:02:00,36.0,30.0,-100.00,South,170,9.0,15.0,79,-99.99,,,-99.99,,2013-11-20 08:02:00,
2013-11-20 02:22:00,36.0,31.0,-100.00,South,175,9.0,17.0,79,-99.99,,,-99.99,,2013-11-20 08:22:00,
2013-11-20 02:32:00,36.0,31.0,-100.00,South,175,9.0,17.0,79,-99.99,,,-99.99,,2013-11-20 08:32:00,
2013-11-20 02:42:00,36.0,31.0,-100.00,South,175,9.0,17.0,79,-99.99,,,-99.99,,2013-11-20 08:42:00,
2013-11-20 02:52:00,36.0,31.0,-100.00,South,175,9.0,17.0,79,-99.99,,,-99.99,,2013-11-20 08:52:00,
2013-11-20 03:02:00,36.0,31.0,-100.00,South,175,9.0,17.0,79,-99.99,,,-99.99,,2013-11-20 09:02:00,
2013-11-20 04:23:00,37.0,30.0,-100.00,South,180,8.0,18.0,76,-99.99,,,-99.99,,2013-11-20 10:23:00,
2013-11-20 04:33:00,37.0,30.0,-100.00,South,180,8.0,18.0,76,-99.99,,,-99.99,,2013-11-20 10:33:00,
2013-11-20 04:43:00,37.0,30.0,-100.00,South,180,8.0,18.0,76,-99.99,,,-99.99,,2013-11-20 10:43:00,
2013-11-20 04:53:00,37.0,30.0,-100.00,South,180,8.0,18.0,76,-99.99,,,-99.99,,2013-11-20 10:53:00,
2013-11-20 05:02:00,37.0,30.0,-100.00,South,180,8.0,18.0,76,-99.99,,,-99.99,,2013-11-20 11:02:00,
2013-11-20 05:22:00,37.0,30.0,-100.00,SSE,160,9.0,22.0,76,-99.99,,,-99.99,,2013-11-20 11:22:00,
2013-11-20 05:33:00,37.0,30.0,-100.00,SSE,160,9.0,22.0,76,-99.99,,,-99.99,,2013-11-20 11:33:00,
2013-11-20 05:43:00,37.0,30.0,-100.00,SSE,160,9.0,22.0,76,-99.99,,,-99.99,,2013-11-20 11:43:00,
2013-11-20 05:52:00,37.0,30.0,-100.00,SSE,160,9.0,22.0,76,-99.99,,,-99.99,,2013-11-20 11:52:00,
2013-11-20 06:02:00,37.0,30.0,-100.00,SSE,160,9.0,22.0,76,-99.99,,,-99.99,,2013-11-20 12:02:00,
2013-11-20 06:22:00,36.0,30.0,-100.00,SSE,155,8.0,17.0,79,-99.99,,,-99.99,,2013-11-20 12:22:00,
2013-11-20 06:32:00,36.0,30.0,-100.00,SSE,155,8.0,17.0,79,-99.99,,,-99.99,,2013-11-20 12:32:00,
2013-11-20 06:42:00,36.0,30.0,-100.00,SSE,155,8.0,17.0,79,-99.99,,,-99.99,,2013-11-20 12:42:00,
2013-11-20 06:52:00,36.0,30.0,-100.00,SSE,155,8.0,17.0,79,-99.99,,,-99.99,,2013-11-20 12:52:00,
2013-11-20 07:01:00,36.0,30.0,-100.00,SSE,155,8.0,17.0,79,-99.99,,,-99.99,,2013-11-20 13:01:00,
2013-11-20 07:42:00,36.0,30.0,-100.00,South,170,9.0,13.0,80,-99.99,,,-99.99,,2013-11-20 13:42:00,
2013-11-20 07:52:00,36.0,30.0,-100.00,South,170,9.0,13.0,80,-99.99,,,-99.99,,2013-11-20 13:52:00,
2013-11-20 08:02:00,36.0,30.0,-100.00,South,170,9.0,13.0,80,-99.99,,,-99.99,,2013-11-20 14:02:00,
2013-11-20 08:22:00,36.0,30.0,-100.00,SSE,160,10.0,15.0,80,-99.99,,,-99.99,,2013-11-20 14:22:00,
2013-11-20 08:42:00,36.0,30.0,-100.00,SSE,160,9.0,16.0,80,-99.99,,,-99.99,,2013-11-20 14:42:00,
2013-11-20 08:52:00,36.0,30.0,-100.00,SSE,160,9.0,16.0,80,-99.99,,,-99.99,,2013-11-20 14:52:00,
2013-11-20 09:02:00,36.0,30.0,-100.00,SSE,160,9.0,16.0,80,-99.99,,,-99.99,,2013-11-20 15:02:00,
2013-11-20 09:22:00,36.0,30.0,-100.00,SSE,160,10.0,18.0,79,-99.99,,,-99.99,,2013-11-20 15:22:00,
2013-11-20 09:33:00,36.0,30.0,-100.00,SSE,160,10.0,18.0,79,-99.99,,,-99.99,,2013-11-20 15:33:00,
2013-11-20 09:43:00,36.0,30.0,-100.00,SSE,160,10.0,18.0,79,-99.99,,,-99.99,,2013-11-20 15:43:00,
2013-11-20 09:54:00,36.0,30.0,-100.00,SSE,160,10.0,18.0,79,-99.99,,,-99.99,,2013-11-20 15:54:00,
2013-11-20 10:03:00,36.0,30.0,-100.00,SSE,160,10.0,18.0,79,-99.99,,,-99.99,,2013-11-20 16:03:00,
2013-11-20 10:43:00,37.0,30.0,-100.00,SSE,160,9.0,18.0,76,-99.99,,,-99.99,,2013-11-20 16:43:00,
2013-11-20 10:52:00,37.0,30.0,-100.00,SSE,160,9.0,18.0,76,-99.99,,,-99.99,,2013-11-20 16:52:00,
2013-11-20 11:02:00,37.0,30.0,-100.00,SSE,160,9.0,18.0,76,-99.99,,,-99.99,,2013-11-20 17:02:00,
2013-11-20 11:42:00,37.0,29.0,-100.00,SSE,160,9.0,15.0,72,-99.99,,,-99.99,,2013-11-20 17:42:00,
2013-11-20 11:52:00,37.0,29.0,-100.00,SSE,160,9.0,15.0,72,-99.99,,,-99.99,,2013-11-20 17:52:00,
2013-11-20 12:02:00,37.0,29.0,-100.00,SSE,160,9.0,15.0,72,-99.99,,,-99.99,,2013-11-20 18:02:00,
2013-11-20 12:22:00,38.0,30.0,-100.00,SSE,160,7.0,16.0,71,-99.99,,,-99.99,,2013-11-20 18:22:00,
2013-11-20 12:33:00,38.0,30.0,-100.00,SSE,160,7.0,16.0,71,-99.99,,,-99.99,,2013-11-20 18:33:00,
2013-11-20 12:43:00,38.0,30.0,-100.00,SSE,160,7.0,16.0,71,-99.99,,,-99.99,,2013-11-20 18:43:00,
2013-11-20 12:52:00,38.0,30.0,-100.00,SSE,160,7.0,16.0,71,-99.99,,,-99.99,,2013-11-20 18:52:00,
2013-11-20 13:02:00,38.0,30.0,-100.00,SSE,160,7.0,16.0,71,-99.99,,,-99.99,,2013-11-20 19:02:00,
2013-11-20 13:42:00,39.0,29.0,-100.00,South,175,6.0,11.0,66,-99.99,,,-99.99,,2013-11-20 19:42:00,
2013-11-20 13:52:00,39.0,29.0,-100.00,South,175,6.0,11.0,66,-99.99,,,-99.99,,2013-11-20 19:52:00,
2013-11-20 14:01:00,39.0,29.0,-100.00,South,175,6.0,11.0,66,-99.99,,,-99.99,,2013-11-20 20:01:00,
2013-11-20 14:22:00,40.0,28.0,-100.00,SSE,155,6.0,9.0,63,-99.99,,,-99.99,,2013-11-20 20:22:00,
2013-11-20 14:32:00,40.0,28.0,-100.00,SSE,155,6.0,9.0,63,-99.99,,,-99.99,,2013-11-20 20:32:00,
2013-11-20 14:42:00,40.0,28.0,-100.00,SSE,155,6.0,9.0,63,-99.99,,,-99.99,,2013-11-20 20:42:00,
2013-11-20 14:52:00,40.0,28.0,-100.00,SSE,155,6.0,9.0,63,-99.99,,,-99.99,,2013-11-20 20:52:00,
2013-11-20 15:02:00,40.0,28.0,-100.00,SSE,155,6.0,9.0,63,-99.99,,,-99.99,,2013-11-20 21:02:00,
2013-11-20 15:22:00,40.0,27.0,-100.00,SE,145,4.0,11.0,61,-99.99,,,-99.99,,2013-11-20 21:22:00,
2013-11-20 15:33:00,40.0,27.0,-100.00,SE,145,4.0,11.0,61,-99.99,,,-99.99,,2013-11-20 21:33:00,
2013-11-20 15:43:00,40.0,27.0,-100.00,SE,145,4.0,11.0,61,-99.99,,,-99.99,,2013-11-20 21:43:00,
2013-11-20 15:53:00,40.0,27.0,-100.00,SE,145,4.0,11.0,61,-99.99,,,-99.99,,2013-11-20 21:53:00,
2013-11-20 16:42:00,37.0,31.0,-100.00,SSE,165,9.0,14.0,78,-99.99,,,-99.99,,2013-11-20 22:42:00,
2013-11-20 16:53:00,37.0,31.0,-100.00,SSE,165,9.0,14.0,78,-99.99,,,-99.99,,2013-11-20 22:53:00,
2013-11-20 17:02:00,37.0,31.0,-100.00,SSE,165,9.0,14.0,78,-99.99,,,-99.99,,2013-11-20 23:02:00,
2013-11-20 17:22:00,37.0,33.0,-100.00,SSE,155,6.0,12.0,85,-99.99,,,-99.99,,2013-11-20 23:22:00,
2013-11-20 17:32:00,37.0,33.0,-100.00,SSE,155,6.0,12.0,85,-99.99,,,-99.99,,2013-11-20 23:32:00,
2013-11-20 17:43:00,37.0,33.0,-100.00,SSE,155,6.0,12.0,85,-99.99,,,-99.99,,2013-11-20 23:43:00,
2013-11-20 17:52:00,37.0,33.0,-100.00,SSE,155,6.0,12.0,85,-99.99,,,-99.99,,2013-11-20 23:52:00,
2013-11-20 18:02:00,37.0,33.0,-100.00,SSE,155,6.0,12.0,85,-99.99,,,-99.99,,2013-11-21 00:02:00,
2013-11-20 18:22:00,35.0,34.0,-100.00,SE,135,7.0,11.0,95,-99.99,,,-99.99,,2013-11-21 00:22:00,
2013-11-20 18:32:00,35.0,34.0,-100.00,SE,135,7.0,11.0,95,-99.99,,,-99.99,,2013-11-21 00:32:00,
2013-11-20 18:42:00,35.0,34.0,-100.00,SE,135,7.0,11.0,95,-99.99,,,-99.99,,2013-11-21 00:42:00,
2013-11-20 18:52:00,35.0,34.0,-100.00,SE,135,7.0,11.0,95,-99.99,,,-99.99,,2013-11-21 00:52:00,
2013-11-20 19:02:00,35.0,34.0,-100.00,SE,135,7.0,11.0,95,-99.99,,,-99.99,,2013-11-21 01:02:00,
2013-11-20 19:42:00,35.0,35.0,-100.00,SE,130,4.0,6.0,99,-99.99,,,-99.99,,2013-11-21 01:42:00,
2013-11-20 19:52:00,35.0,35.0,-100.00,SE,130,4.0,6.0,99,-99.99,,,-99.99,,2013-11-21 01:52:00,
2013-11-20 20:01:00,35.0,35.0,-100.00,SE,130,4.0,6.0,99,-99.99,,,-99.99,,2013-11-21 02:01:00,
2013-11-20 20:52:00,35.0,34.0,-100.00,SE,125,2.0,5.0,99,-99.99,,,-99.99,,2013-11-21 02:52:00,
2013-11-20 21:02:00,35.0,34.0,-100.00,SE,125,2.0,5.0,99,-99.99,,,-99.99,,2013-11-21 03:02:00,
2013-11-20 21:43:00,35.0,34.0,-100.00,SE,130,4.0,8.0,99,-99.99,,,-99.99,,2013-11-21 03:43:00,
2013-11-20 21:54:00,35.0,34.0,-100.00,SE,130,4.0,8.0,99,-99.99,,,-99.99,,2013-11-21 03:54:00,
2013-11-20 22:03:00,35.0,34.0,-100.00,SE,130,4.0,8.0,99,-99.99,,,-99.99,,2013-11-21 04:03:00,
2013-11-20 22:43:00,36.0,36.0,-100.00,SSE,165,2.0,6.0,99,-99.99,,,-99.99,,2013-11-21 04:43:00,
2013-11-20 22:53:00,36.0,36.0,-100.00,SSE,165,2.0,6.0,99,-99.99,,,-99.99,,2013-11-21 04:53:00,
2013-11-20 23:02:00,36.0,36.0,-100.00,SSE,165,2.0,6.0,99,-99.99,,,-99.99,,2013-11-21 05:02:00,
2013-11-20 23:43:00,36.0,36.0,-100.00,SSE,150,4.0,11.0,99,-99.99,,,-99.99,,2013-11-21 05:43:00,
2013-11-20 23:53:00,36.0,36.0,-100.00,SSE,150,4.0,11.0,99,-99.99,,,-99.99,,2013-11-21 05:53:00,